Location: Asheville, NC
(35.6000°N, 82.5500°W)
Time: 04:44:49
(UTC-04:00)

Vanguard 1 Rocket - Pass Details

Date: 10 December 2017
Orbit: 652 x 4225 km, 34.3° (Epoch: 17 July)

Event Time Altitude Azimuth Distance (km) Brightness Sun altitude
Rises 23:16:18 0° 285° (WNW) 6,750 12.1 -70.8°
Reaches altitude 10° 23:20:10 10° 282° (WNW) 6,100 11.7 -71.4°
Enters shadow 23:28:16 34° 273° (W) 5,007 11.0 -72.6°
Maximum altitude 23:41:35 65° 208° (SSW) 4,406 - -74.5°
Drops below altitude 10° 00:06:40 10° 133° (SE) 6,932 - -76.9°
Exits shadow 00:10:58 - 130° (SE) 7,578 12.0 -77.1°
Sets 00:11:29 0° 130° (SE) 7,657 12.0 -77.1°
